Retour au catalogue

TIANLIAN 2-01

ActifCommunicationsGEO
NORAD 44076·PAYLOAD·🇨🇳 China

Lancé Mar 31, 2019 depuis Xichang Satellite Launch Center

Loading…

TLE

FraisSource: Space-Track

Époque: Sep 14, 2026, 22:43 UTC

1 44076U 19017A   26257.94678752 -.00000114  00000-0  00000-0 0  9996
2 44076   0.7655  82.5225 0003082 122.6225 206.6319  1.00271970 27545

Suivez TIANLIAN 2-01 en temps réel avec AllMySat

Download on the App Store